This is the latest recevied weather packets stored in our database for station/object KD4EG. If no packets are shown the sender has not sent any weather packets the latest 10 day(s).
| Time | Temp. | Humidity | Pressure | Rain* | Wind** | Luminosity | Snow |
|---|---|---|---|---|---|---|---|
| 1777905562 | 17.78° C | 47% | 1018.2 hPa | 0 mm | - | 754 W/m² | - |
| 1777905259 | 17.22° C | 48% | 1018 hPa | 0 mm | - | 625 W/m² | - |
| 1777904956 | 17.22° C | 49% | 1018.5 hPa | 0 mm | - | 560 W/m² | - |
| 1777904654 | 16.67° C | 48% | 1018.4 hPa | 0 mm | - | 564 W/m² | - |
| 1777904351 | 17.22° C | 48% | 1018.3 hPa | 0 mm | - | 522 W/m² | - |
| 1777904047 | 17.22° C | 48% | 1018.3 hPa | 0 mm | - | 681 W/m² | - |
| 1777903744 | 16.67° C | 49% | 1018.2 hPa | 0 mm | - | 656 W/m² | - |
| 1777903440 | 16.11° C | 50% | 1018.5 hPa | 0 mm | - | 614 W/m² | - |
| 1777903137 | 16.11° C | 50% | 1018.4 hPa | 0 mm | - | 583 W/m² | - |
| 1777902833 | 16.11° C | 51% | 1018.3 hPa | 0 mm | - | 575 W/m² | - |
| 1777902531 | 16.11° C | 50% | 1018.4 hPa | 0 mm | - | 548 W/m² | - |
| 1777902227 | 16.11° C | 50% | 1018.1 hPa | 0 mm | - | 542 W/m² | - |
| 1777901926 | 15.56° C | 51% | 1018.3 hPa | 0 mm | - | 530 W/m² | - |
| 1777901623 | 15.56° C | 51% | 1018.1 hPa | 0 mm | - | 491 W/m² | - |
| 1777901320 | 15° C | 51% | 1018.1 hPa | 0 mm | - | 452 W/m² | - |
| 1777901018 | 15° C | 50% | 1018.5 hPa | 0 mm | - | 452 W/m² | - |
| 1777900715 | 14.44° C | 51% | 1018.2 hPa | 0 mm | - | 425 W/m² | - |
| 1777900412 | 14.44° C | 51% | 1018.2 hPa | 0 mm | - | 340 W/m² | - |
| 1777900109 | 14.44° C | 51% | 1018.1 hPa | 0 mm | - | 380 W/m² | - |
| 1777899805 | 14.44° C | 51% | 1018.2 hPa | 0 mm | - | 221 W/m² | - |
| 1777899502 | 14.44° C | 52% | 1018.2 hPa | 0 mm | - | 252 W/m² | - |
| 1777899200 | 14.44° C | 53% | 1018.3 hPa | 0 mm | - | 288 W/m² | - |
| 1777898897 | 13.89° C | 53% | 1018.2 hPa | 0 mm | - | 211 W/m² | - |
| 1777898594 | 13.89° C | 54% | 1018.1 hPa | 0 mm | - | 243 W/m² | - |
| 1777898292 | 13.33° C | 57% | 1018.2 hPa | 0 mm | - | 274 W/m² | - |
* Rain latest hour (hover to see other rain measurements)
** Current wind speed in m/s (hover to see current wind gust speed)